Student's Login

Local Time

LGIR WEATHER

[source: ADDS]
METAR
LGIR 252220Z 19005KT 9999 FEW020 09/08 Q1017 NOSIG =
TAF LGIR 251700Z 2518/2618 19010KT 9999 FEW020
TAF
TAF LGIR 251700Z 2518/2618 19010KT 9999 FEW020 =

Czech sport aircraft

Cretan Eagle Aviation Ltd. is proud to be appointed as an authorized Czech Sport Aircraft Promoter for Greece
and Cyprus. Please click on the link or give us a call for any additional information on Czech Sport Aircraft.

 

 

On-line PPL QUIZ

Student members can join our free on-line database to practice on PPL quizzes and get ready for the real
exams. Becoming a member and getting access to our system is FREE for all of our students.

 

Paypal Verified

Payments for any Course can be made by Bank Transfer, Cash and PayPal secure payment.

 

Go to top